FW7787 Weather Reports


Display with metric or nautical units.
time (UTC)temp
F
wind
direction
speed
MPH
gust
MPH
rain 1hr
in
rain 24hr
in
rain mn
in
humidity
%
barometer
mb
20220930213522 81 0 1.0 7.0 0.00 0.00 0.00 67 1008.0
20220930213032 82 87 1.0 7.0 0.00 0.00 0.00 66 1007.9
20220930212517 82 0 1.0 6.0 0.00 0.00 0.00 65 1008.1
20220930212017 82 0 0.0 6.0 0.00 0.00 0.00 67 1008.0
20220930211519 82 113 0.0 4.0 0.00 0.00 0.00 66 1008.0
20220930211021 82 0 0.0 3.0 0.00 0.00 0.00 66 1008.0
20220930210520 82 0 0.0 7.0 0.00 0.00 0.00 67 1008.0
20220930205518 82 122 2.0 7.0 0.00 0.00 0.00 68 1008.1
20220930205023 82 133 3.0 7.0 0.00 0.00 0.00 66 1008.1
20220930204521 82 0 1.0 7.0 0.00 0.00 0.00 67 1008.1
20220930204018 81 145 2.0 7.0 0.00 0.00 0.00 67 1008.1
20220930203518 81 119 3.0 7.0 0.00 0.00 0.00 67 1008.1
20220930203026 81 70 1.0 7.0 0.00 0.00 0.00 68 1008.1
20220930202518 81 129 3.0 7.0 0.00 0.00 0.00 67 1008.1
20220930202022 82 129 0.0 6.0 0.00 0.00 0.00 66 1008.1
20220930201523 82 0 2.0 6.0 0.00 0.00 0.00 65 1008.1
20220930201018 83 0 1.0 5.0 0.00 0.00 0.00 64 1008.2
20220930200528 83 212 2.0 8.0 0.00 0.00 0.00 64 1008.1
20220930200020 83 113 2.0 8.0 0.00 0.00 0.00 64 1008.2
20220930195517 84 60 3.0 8.0 0.00 0.00 0.00 61 1008.2
20220930195017 85 120 3.0 8.0 0.00 0.00 0.00 60 1008.3
20220930194520 86 0 2.0 8.0 0.00 0.00 0.00 59 1008.3
20220930194017 86 111 4.0 8.0 0.00 0.00 0.00 57 1008.3
20220930193518 89 98 0.0 4.0 0.00 0.00 0.00 54 1008.3
20220930193019 88 0 0.0 2.0 0.00 0.00 0.00 53 1008.2
20220930192517 87 0 0.0 4.0 0.00 0.00 0.00 54 1008.2
20220930191523 86 294 0.0 4.0 0.00 0.00 0.00 54 1008.5
20220930191020 86 0 0.0 6.0 0.00 0.00 0.00 57 1008.4
20220930190519 86 256 0.0 6.0 0.00 0.00 0.00 56 1008.5
20220930190024 86 0 2.0 6.0 0.00 0.00 0.00 55 1008.5
20220930185516 85 261 0.0 2.0 0.00 0.00 0.00 58 1008.5
20220930185021 85 0 0.0 6.0 0.00 0.00 0.00 58 1008.6
20220930184529 84 0 0.0 6.0 0.00 0.00 0.00 59 1008.6
20220930184017 85 307 2.0 6.0 0.00 0.00 0.00 56 1008.6
20220930183516 86 326 0.0 6.0 0.00 0.00 0.00 56 1008.7
20220930183020 86 0 0.0 6.0 0.00 0.00 0.00 56 1008.7
20220930182519 85 306 1.0 6.0 0.00 0.00 0.00 57 1008.7
20220930182018 85 309 0.0 5.0 0.00 0.00 0.00 56 1008.7
20220930181528 85 0 1.0 5.0 0.00 0.00 0.00 56 1008.9
20220930181017 86 279 0.0 4.0 0.00 0.00 0.00 56 1009.0
20220930180518 86 0 0.0 4.0 0.00 0.00 0.00 56 1008.8
20220930180023 86 0 0.0 3.0 0.00 0.00 0.00 57 1008.9
20220930175517 85 273 0.0 3.0 0.00 0.00 0.00 57 1009.0
20220930175021 85 245 0.0 5.0 0.00 0.00 0.00 58 1009.0
20220930174525 85 193 1.0 5.0 0.00 0.00 0.00 57 1009.1
20220930174019 84 0 0.0 4.0 0.00 0.00 0.00 58 1009.1
20220930173520 85 295 0.0 4.0 0.00 0.00 0.00 57 1009.3
20220930173022 85 0 0.0 4.0 0.00 0.00 0.00 56 1009.4
20220930172521 85 312 0.0 7.0 0.00 0.00 0.00 58 1009.6
20220930172020 84 259 1.0 7.0 0.00 0.00 0.00 59 1009.6
20220930171523 85 43 1.0 6.0 0.00 0.00 0.00 57 1009.5
20220930171029 84 0 0.0 4.0 0.00 0.00 0.00 58 1009.6
20220930170516 84 0 0.0 4.0 0.00 0.00 0.00 57 1009.8
20220930170023 84 0 0.0 4.0 0.00 0.00 0.00 58 1009.8
20220930165516 84 0 0.0 3.0 0.00 0.00 0.00 57 1009.9
20220930165019 84 0 0.0 3.0 0.00 0.00 0.00 58 1009.9
20220930164532 83 0 0.0 3.0 0.00 0.00 0.00 59 1010.0
20220930164018 83 0 0.0 3.0 0.00 0.00 0.00 60 1010.0
20220930163517 82 70 0.0 0.0 0.00 0.00 0.00 61 1010.1
20220930163118 82 0 0.0 5.0 0.00 0.00 0.00 61 1010.2
20220930162518 81 0 0.0 5.0 0.00 0.00 0.00 62 1010.2
20220930162022 81 269 1.0 5.0 0.00 0.00 0.00 60 1010.2
20220930161521 81 293 1.0 5.0 0.00 0.00 0.00 61 1010.2
20220930161017 81 111 0.0 5.0 0.00 0.00 0.00 60 1010.2
20220930160524 81 280 0.0 5.0 0.00 0.00 0.00 62 1010.2
20220930160022 80 0 0.0 5.0 0.00 0.00 0.00 64 1010.2
20220930155518 80 280 0.0 5.0 0.00 0.00 0.00 63 1010.3
20220930155022 79 0 1.0 5.0 0.00 0.00 0.00 64 1010.3
20220930154542 79 0 1.0 5.0 0.00 0.00 0.00 63 1010.3
20220930154019 80 0 0.0 4.0 0.00 0.00 0.00 63 1010.3
20220930153519 80 0 0.0 4.0 0.00 0.00 0.00 64 1010.3
20220930153020 79 0 0.0 5.0 0.00 0.00 0.00 64 1010.3
20220930152523 79 0 1.0 5.0 0.00 0.00 0.00 63 1010.2
20220930152018 80 258 0.0 4.0 0.00 0.00 0.00 63 1010.4
20220930151522 79 0 0.0 4.0 0.00 0.00 0.00 66 1010.3
20220930151023 78 262 0.0 4.0 0.00 0.00 0.00 66 1010.2
20220930150518 78 0 0.0 5.0 0.00 0.00 0.00 66 1010.2
20220930150019 78 0 0.0 5.0 0.00 0.00 0.00 65 1010.3
20220930145518 78 0 0.0 5.0 0.00 0.00 0.00 66 1010.3
20220930145018 78 305 0.0 5.0 0.00 0.00 0.00 65 1010.2
20220930144523 78 0 0.0 0.0 0.00 0.00 0.00 66 1010.3
20220930144017 77 0 0.0 0.0 0.00 0.00 0.00 67 1010.3
20220930143517 77 0 0.0 0.0 0.00 0.00 0.00 66 1010.3
20220930143020 77 0 0.0 0.0 0.00 0.00 0.00 69 1010.2
20220930142518 76 0 0.0 0.0 0.00 0.00 0.00 69 1010.2
20220930142019 76 0 0.0 5.0 0.00 0.00 0.00 69 1010.2
20220930141520 75 0 0.0 5.0 0.00 0.00 0.00 71 1010.1
20220930141022 75 0 1.0 5.0 0.00 0.00 0.00 71 1010.1
20220930140528 74 0 0.0 4.0 0.00 0.00 0.00 71 1010.2
20220930140031 74 262 0.0 4.0 0.00 0.00 0.00 72 1010.0
20220930135520 74 0 0.0 4.0 0.00 0.00 0.00 72 1010.1
20220930134523 73 0 1.0 4.0 0.00 0.00 0.00 73 1010.0
20220930134018 73 285 0.0 5.0 0.00 0.00 0.00 74 1009.8
20220930133518 73 304 2.0 5.0 0.00 0.00 0.00 73 1009.9
20220930133021 73 0 0.0 3.0 0.00 0.00 0.00 73 1009.9
20220930132521 73 0 0.0 4.0 0.00 0.00 0.00 74 1009.8
20220930132017 72 0 0.0 4.0 0.00 0.00 0.00 75 1009.9
20220930131517 72 0 0.0 5.0 0.00 0.00 0.00 75 1009.9
20220930131021 71 0 0.0 5.0 0.00 0.00 0.00 77 1009.8
20220930130527 71 0 1.0 5.0 0.00 0.00 0.00 76 1009.8
20220930130026 71 0 0.0 5.0 0.00 0.00 0.00 78 1009.9
20220930125517 71 0 0.0 0.0 0.00 0.00 0.00 77 1009.8
20220930125019 70 0 0.0 1.0 0.00 0.00 0.00 78 1009.7
20220930124530 70 0 0.0 5.0 0.00 0.00 0.00 79 1009.6
20220930124019 70 304 1.0 5.0 0.00 0.00 0.00 79 1009.6
20220930123523 70 0 0.0 5.0 0.00 0.00 0.00 80 1009.5
20220930123017 69 0 0.0 3.0 0.00 0.00 0.00 81 1009.6
20220930122517 69 0 0.0 5.0 0.00 0.00 0.00 81 1009.6
20220930122017 69 0 0.0 5.0 0.00 0.00 0.00 82 1009.6
20220930121521 69 0 0.0 3.0 0.00 0.00 0.00 82 1009.6
20220930121017 68 0 0.0 3.0 0.00 0.00 0.00 83 1009.5
20220930120517 68 0 0.0 4.0 0.00 0.00 0.00 84 1009.5
20220930120023 68 305 0.0 4.0 0.00 0.00 0.00 84 1009.3
20220930115519 68 0 0.0 1.0 0.00 0.00 0.00 85 1009.4
20220930115019 67 0 0.0 2.0 0.00 0.00 0.00 85 1009.3
20220930114521 67 0 0.0 2.0 0.00 0.00 0.00 86 1009.3
20220930114022 67 0 0.0 3.0 0.00 0.00 0.00 86 1009.3
20220930113532 67 0 0.0 3.0 0.00 0.00 0.00 86 1009.3
20220930113020 66 0 0.0 2.0 0.00 0.00 0.00 86 1009.3
20220930112532 66 0 0.0 6.0 0.00 0.00 0.00 86 1009.4
20220930112018 66 0 0.0 6.0 0.00 0.00 0.00 87 1009.3
20220930111530 66 0 0.0 6.0 0.00 0.00 0.00 87 1009.3
20220930111024 66 0 0.0 4.0 0.00 0.00 0.00 87 1009.1
20220930110532 66 0 0.0 4.0 0.00 0.00 0.00 87 1009.0
20220930110029 66 286 0.0 4.0 0.00 0.00 0.00 87 1009.0
20220930105522 66 0 0.0 0.0 0.00 0.00 0.00 87 1009.0
20220930105019 66 0 0.0 0.0 0.00 0.00 0.00 87 1009.1
20220930104523 66 0 0.0 0.0 0.00 0.00 0.00 87 1009.0
20220930104019 66 0 0.0 0.0 0.00 0.00 0.00 88 1008.9
20220930103522 66 0 0.0 0.0 0.00 0.00 0.00 88 1008.8
20220930103022 66 0 0.0 0.0 0.00 0.00 0.00 88 1009.0
20220930102518 66 0 0.0 0.0 0.00 0.00 0.00 87 1009.0
20220930102017 66 0 0.0 0.0 0.00 0.00 0.00 87 1009.0
20220930101521 66 0 0.0 0.0 0.00 0.00 0.00 87 1009.0
20220930101018 67 0 0.0 0.0 0.00 0.00 0.00 87 1008.9
20220930100520 67 0 0.0 0.0 0.00 0.00 0.00 87 1008.8
20220930100029 67 0 0.0 0.0 0.00 0.00 0.00 87 1008.9
20220930095519 67 0 0.0 0.0 0.00 0.00 0.00 87 1008.9
20220930095022 67 0 0.0 0.0 0.00 0.00 0.00 87 1008.9
20220930094521 67 0 0.0 0.0 0.00 0.00 0.00 87 1008.9
20220930094019 67 0 0.0 0.0 0.00 0.00 0.00 87 1008.9
20220930093518 67 0 0.0 0.0 0.00 0.00 0.00 87 1008.7
20220930093047 67 0 0.0 0.0 0.00 0.00 0.00 87 1008.8
20220930092519 67 0 0.0 0.0 0.00 0.00 0.00 87 1008.8
20220930092021 67 0 0.0 0.0 0.00 0.00 0.00 87 1008.7
20220930091516 67 0 0.0 0.0 0.00 0.00 0.00 87 1008.8
20220930091022 67 0 0.0 0.0 0.00 0.00 0.00 86 1008.7
20220930090523 67 0 0.0 0.0 0.00 0.00 0.00 86 1008.7
20220930090019 67 0 0.0 0.0 0.00 0.00 0.00 86 1008.7
20220930085517 67 0 0.0 0.0 0.00 0.00 0.00 86 1008.9
20220930085024 67 0 0.0 0.0 0.00 0.00 0.00 86 1008.7
20220930084517 67 0 0.0 1.0 0.00 0.00 0.00 86 1008.7
20220930084018 67 0 0.0 1.0 0.00 0.00 0.00 86 1008.6
20220930083527 67 0 0.0 3.0 0.00 0.00 0.00 86 1008.6
20220930083019 67 0 0.0 3.0 0.00 0.00 0.00 86 1008.6
20220930082522 67 0 0.0 3.0 0.00 0.00 0.00 85 1008.6
20220930082019 68 0 0.0 3.0 0.00 0.00 0.00 85 1008.5
20220930081520 68 0 0.0 3.0 0.00 0.00 0.00 85 1008.6
20220930081017 68 291 0.0 3.0 0.00 0.00 0.00 85 1008.5
20220930080522 68 0 0.0 3.0 0.00 0.00 0.00 85 1008.5
20220930080036 68 0 0.0 0.0 0.00 0.00 0.00 85 1008.5
20220930075518 68 0 0.0 1.0 0.00 0.00 0.00 85 1008.4
20220930075022 68 0 0.0 2.0 0.00 0.00 0.00 85 1008.3
20220930074517 68 0 0.0 6.0 0.00 0.00 0.00 85 1008.3
20220930074019 68 0 0.0 6.0 0.00 0.00 0.00 85 1008.3
20220930073518 68 0 0.0 4.0 0.00 0.00 0.00 85 1008.3
20220930073016 68 0 0.0 4.0 0.00 0.00 0.00 84 1008.3
20220930072518 68 0 0.0 0.0 0.00 0.00 0.00 84 1008.3
20220930072019 68 0 0.0 3.0 0.00 0.00 0.00 84 1008.2
20220930071535 68 0 0.0 3.0 0.00 0.00 0.00 84 1008.2
20220930071023 68 0 0.0 3.0 0.00 0.00 0.00 84 1008.2
20220930070518 68 0 0.0 2.0 0.00 0.00 0.00 84 1008.2
20220930070023 68 0 0.0 4.0 0.00 0.00 0.00 84 1008.1
20220930065523 69 241 0.0 4.0 0.00 0.00 0.00 85 1008.1
20220930065018 69 319 0.0 3.0 0.00 0.00 0.00 84 1008.3
20220930064518 69 0 0.0 3.0 0.00 0.00 0.00 84 1008.2
20220930064021 69 0 0.0 4.0 0.00 0.00 0.00 84 1008.3
20220930063527 69 0 0.0 4.0 0.00 0.00 0.00 84 1008.2
20220930063026 69 255 0.0 0.0 0.00 0.00 0.00 84 1008.1
20220930062518 69 0 0.0 6.0 0.00 0.00 0.00 84 1008.3
20220930062019 69 0 0.0 6.0 0.00 0.00 0.00 84 1008.3
20220930061519 69 293 0.0 5.0 0.00 0.00 0.00 83 1008.3
20220930061017 69 0 0.0 5.0 0.00 0.00 0.00 83 1008.4
20220930060519 69 0 0.0 3.0 0.00 0.00 0.00 83 1008.3
20220930060022 70 0 0.0 3.0 0.00 0.00 0.00 83 1008.3
20220930055517 70 0 0.0 3.0 0.00 0.00 0.00 83 1008.5
20220930055017 70 0 0.0 2.0 0.00 0.00 0.00 83 1008.5
20220930054540 70 0 0.0 3.0 0.00 0.00 0.00 83 1008.5
20220930054020 70 0 0.0 6.0 0.00 0.00 0.00 83 1008.3
20220930053517 70 0 0.0 6.0 0.00 0.00 0.00 83 1008.3
20220930053027 70 0 0.0 6.0 0.00 0.00 0.00 83 1008.4
20220930052519 70 284 0.0 4.0 0.00 0.00 0.00 83 1008.3
20220930052017 70 0 0.0 5.0 0.00 0.00 0.00 83 1008.4
20220930051519 71 0 0.0 7.0 0.00 0.00 0.00 83 1008.5
20220930051018 71 0 0.0 7.0 0.00 0.00 0.00 82 1008.5
20220930050521 71 311 1.0 5.0 0.00 0.00 0.00 83 1008.5
20220930050033 71 0 0.0 3.0 0.00 0.00 0.00 82 1008.6
20220930045519 71 0 0.0 0.0 0.00 0.00 0.00 82 1008.6
20220930045018 71 0 0.0 0.0 0.00 0.00 0.00 83 1008.7
20220930044517 71 0 0.0 0.0 0.00 0.00 0.00 83 1008.6
20220930044018 71 0 0.0 0.0 0.00 0.00 0.00 82 1008.6
20220930043518 71 0 0.0 0.0 0.00 0.00 0.00 82 1008.6
20220930043022 71 0 0.0 3.0 0.00 0.00 0.00 82 1008.7
20220930042516 72 0 0.0 3.0 0.00 0.00 0.00 82 1008.6
20220930042015 72 0 0.0 4.0 0.00 0.00 0.00 82 1008.6
20220930041521 72 0 0.0 4.0 0.00 0.00 0.00 82 1008.6
20220930041017 72 273 0.0 4.0 0.00 0.00 0.00 82 1008.5
20220930040519 72 0 0.0 0.0 0.00 0.00 0.00 82 1008.5
20220930040021 72 0 0.0 5.0 0.00 0.00 0.00 81 1008.7
20220930035518 72 0 0.0 5.0 0.00 0.00 0.00 81 1008.9
20220930035019 72 0 0.0 5.0 0.00 0.00 0.00 81 1008.8
20220930034535 73 304 1.0 6.0 0.00 0.00 0.00 81 1009.0
20220930034022 73 316 0.0 6.0 0.00 0.00 0.00 81 1008.9
20220930033517 73 319 0.0 4.0 0.00 0.00 0.00 81 1009.0
20220930033034 73 288 0.0 4.0 0.00 0.00 0.00 81 1009.0
20220930032518 73 128 0.0 4.0 0.00 0.00 0.00 81 1009.0
20220930032018 74 49 0.0 4.0 0.00 0.00 0.00 80 1008.9
20220930031529 74 0 0.0 5.0 0.00 0.00 0.00 79 1009.0
20220930031019 74 0 1.0 5.0 0.00 0.00 0.00 79 1008.8
20220930030517 74 0 0.0 5.0 0.00 0.00 0.00 78 1008.9
20220930030028 75 0 0.0 5.0 0.00 0.00 0.00 78 1008.9
20220930025516 75 0 0.0 0.0 0.00 0.00 0.00 78 1008.7
20220930025023 75 0 0.0 1.0 0.00 0.00 0.00 78 1008.6
20220930024518 75 0 0.0 4.0 0.00 0.00 0.00 78 1008.6
20220930024018 75 0 0.0 4.0 0.00 0.00 0.00 77 1008.6
20220930023518 75 0 0.0 0.0 0.00 0.00 0.00 78 1008.6
20220930023022 75 0 0.0 3.0 0.00 0.00 0.00 77 1008.6
20220930022522 75 0 0.0 4.0 0.00 0.00 0.00 77 1008.8
20220930022015 76 298 1.0 4.0 0.00 0.00 0.00 77 1008.6
20220930021539 76 0 0.0 3.0 0.00 0.00 0.00 77 1008.8
20220930021017 76 0 0.0 6.0 0.00 0.00 0.00 77 1008.5
20220930020516 76 0 0.0 6.0 0.00 0.00 0.00 77 1008.5
20220930020045 77 315 1.0 6.0 0.00 0.00 0.00 77 1008.5
20220930015515 77 0 0.0 6.0 0.00 0.00 0.00 77 1008.3
20220930015029 77 0 0.0 6.0 0.00 0.00 0.00 77 1008.2
20220930014522 77 340 0.0 6.0 0.00 0.00 0.00 76 1008.3
20220930014015 78 0 0.0 4.0 0.00 0.00 0.00 76 1008.2
20220930013516 78 0 0.0 4.0 0.00 0.00 0.00 75 1008.3
20220930013018 78 0 0.0 0.0 0.00 0.00 0.00 75 1008.2
20220930012518 78 0 0.0 0.0 0.00 0.00 0.00 74 1008.2
20220930012019 78 0 0.0 0.0 0.00 0.00 0.00 74 1008.2
20220930011522 78 0 0.0 4.0 0.00 0.00 0.00 74 1008.1
20220930011116 78 0 0.0 4.0 0.00 0.00 0.00 73 1008.0
20220930010520 78 347 0.0 4.0 0.00 0.00 0.00 73 1008.0
20220930010022 79 0 0.0 3.0 0.00 0.00 0.00 72 1007.9
20220930005523 79 287 0.0 4.0 0.00 0.00 0.00 72 1007.7
20220930005018 79 0 0.0 4.0 0.00 0.00 0.00 72 1007.9
20220930004529 79 328 0.0 4.0 0.00 0.00 0.00 72 1007.9
20220930004019 79 0 0.0 0.0 0.00 0.00 0.00 72 1007.8
20220930003521 79 0 0.0 0.0 0.00 0.00 0.00 71 1007.7
20220930003040 80 0 0.0 5.0 0.00 0.00 0.00 71 1007.7
20220930002518 80 0 0.0 5.0 0.00 0.00 0.00 71 1007.7
20220930002031 80 0 0.0 3.0 0.00 0.00 0.00 71 1007.7
20220930001520 80 0 0.0 3.0 0.00 0.00 0.00 71 1007.5
20220930001019 80 0 0.0 3.0 0.00 0.00 0.00 71 1007.4
20220930000518 80 313 0.0 5.0 0.00 0.00 0.00 70 1007.4
20220930000023 81 0 0.0 5.0 0.00 0.00 0.00 70 1007.2
20220929235522 81 0 0.0 5.0 0.00 0.00 0.00 71 1007.1
20220929235022 81 0 0.0 3.0 0.00 0.00 0.00 71 1007.1
20220929234522 81 295 0.0 4.0 0.00 0.00 0.00 70 1007.2
20220929234020 81 0 0.0 4.0 0.00 0.00 0.00 70 1007.2
20220929233521 81 300 0.0 5.0 0.00 0.00 0.00 69 1007.1
20220929233028 81 293 0.0 5.0 0.00 0.00 0.00 69 1007.1
20220929232528 82 357 0.0 5.0 0.00 0.00 0.00 68 1006.9
20220929232019 82 0 0.0 5.0 0.00 0.00 0.00 69 1006.8
20220929231520 82 0 0.0 3.0 0.00 0.00 0.00 69 1006.8
20220929231026 82 263 0.0 2.0 0.00 0.00 0.00 69 1006.7
20220929230519 82 0 0.0 7.0 0.00 0.00 0.00 69 1006.7
20220929230019 82 0 1.0 7.0 0.00 0.00 0.00 69 1006.7
20220929225524 82 0 0.0 6.0 0.00 0.00 0.00 69 1006.8
20220929225017 82 258 0.0 6.0 0.00 0.00 0.00 69 1006.5
20220929224532 82 311 0.0 6.0 0.00 0.00 0.00 69 1006.5
20220929224017 83 0 2.0 6.0 0.00 0.00 0.00 69 1006.5
20220929223519 83 289 0.0 7.0 0.00 0.00 0.00 69 1006.4
20220929223029 83 0 1.0 7.0 0.00 0.00 0.00 68 1006.4
20220929222524 83 0 0.0 5.0 0.00 0.00 0.00 68 1006.2
20220929222017 83 0 0.0 5.0 0.00 0.00 0.00 68 1006.3
20220929221526 84 274 0.0 7.0 0.00 0.00 0.00 67 1006.3
20220929221023 83 0 0.0 7.0 0.00 0.00 0.00 68 1006.3
20220929220518 83 269 1.0 5.0 0.00 0.00 0.00 68 1006.3
20220929220020 83 0 0.0 7.0 0.00 0.00 0.00 69 1006.2
20220929215517 83 0 0.0 7.0 0.00 0.00 0.00 68 1006.2
20220929215023 83 280 1.0 6.0 0.00 0.00 0.00 68 1006.2
20220929214527 83 301 0.0 6.0 0.00 0.00 0.00 68 1006.2
20220929214019 83 0 0.0 6.0 0.00 0.00 0.00 67 1006.2